DW8947 Weather Reports


time (UTC)temp
C
wind
direction
speed
KPH
gust
KPH
rain 1hr
cm
rain 24hr
cm
rain mn
cm
humidity
%
barometer
mb
20260507224204 17 87 1.6 3.2 0.00 0.00 0.00 60 1016.9
20260507223705 17 241 0.0 3.2 0.00 0.00 0.00 59 1016.9
20260507222704 17 204 0.0 3.2 0.00 0.00 0.00 59 1017.0
20260507221203 17 20 1.6 3.2 0.00 0.00 0.00 60 1017.1
20260507220704 17 199 0.0 3.2 0.00 0.00 0.00 60 1017.2
20260507214704 16 69 0.0 3.2 0.00 0.00 0.00 69 1017.4
20260507214204 16 69 0.0 3.2 0.00 0.00 0.00 67 1017.4
20260507213704 16 63 0.0 3.2 0.00 0.00 0.00 67 1017.5
20260507212704 16 29 0.0 3.2 0.00 0.00 0.00 69 1017.6
20260507211704 17 55 1.6 3.2 0.00 0.00 0.00 66 1017.6
20260507210204 15 293 0.0 3.2 0.00 0.00 0.00 73 1017.9
20260507204704 15 300 0.0 3.2 0.00 0.00 0.00 75 1018.1
20260507202704 15 253 1.6 1.6 0.00 0.00 0.00 76 1018.3
20260507200704 15 34 0.0 3.2 0.00 0.00 0.00 77 1018.5
20260507195204 14 27 0.0 1.6 0.00 0.00 0.00 76 1018.5
20260507194704 14 15 0.0 3.2 0.00 0.00 0.00 76 1018.5
20260507194204 14 15 0.0 3.2 0.00 0.00 0.00 76 1018.5
20260507192704 14 8 0.0 1.6 0.00 0.00 0.00 76 1018.5
20260507192204 14 8 0.0 3.2 0.00 0.00 0.00 75 1018.6
20260507190704 14 53 0.0 3.2 0.00 0.00 0.00 77 1018.6
20260507185704 14 104 0.0 1.6 0.00 0.00 0.00 78 1018.7
20260507185204 13 104 0.0 3.2 0.00 0.00 0.00 76 1018.7
20260507184704 13 111 0.0 3.2 0.00 0.00 0.00 76 1018.8
20260507184204 13 111 0.0 3.2 0.00 0.00 0.00 77 1018.8
20260507183704 13 111 0.0 3.2 0.00 0.00 0.00 76 1018.8
20260507181204 14 287 0.0 1.6 0.00 0.00 0.00 77 1018.9
20260507180204 14 214 0.0 3.2 0.00 0.00 0.00 76 1018.9
20260507174704 14 241 0.0 1.6 0.00 0.00 0.00 78 1018.9
20260507173704 13 171 0.0 1.6 0.00 0.00 0.00 81 1019.0
20260507172704 13 238 0.0 3.2 0.00 0.00 0.00 81 1018.9
20260507172204 13 81 0.0 4.8 0.00 0.00 0.00 81 1018.9
20260507171704 12 223 0.0 3.2 0.00 0.00 0.00 82 1019.0
20260507170703 12 11 0.0 3.2 0.00 0.00 0.00 84 1019.0
20260507170204 12 356 1.6 3.2 0.00 0.00 0.00 85 1018.9
20260507165704 12 152 0.0 3.2 0.00 0.00 0.00 85 1018.9
20260507163704 12 152 0.0 3.2 0.00 0.00 0.00 85 1019.1
20260507162204 11 152 0.0 0.0 0.00 0.00 0.00 87 1019.0
20260507160704 11 152 0.0 3.2 0.00 0.00 0.00 86 1019.1
20260507154704 12 152 0.0 3.2 0.00 0.00 0.00 85 1019.2
20260507154204 12 113 0.0 3.2 0.00 0.00 0.00 85 1019.2
20260507153705 12 94 0.0 1.6 0.00 0.00 0.00 85 1019.2
20260507152704 12 93 0.0 3.2 0.00 0.00 0.00 84 1019.2
20260507152203 12 93 0.0 0.0 0.00 0.00 0.00 84 1019.2
20260507151204 12 94 0.0 0.0 0.00 0.00 0.00 86 1019.2
20260507150704 12 94 0.0 0.0 0.00 0.00 0.00 87 1019.2
20260507150204 11 94 0.0 0.0 0.00 0.00 0.00 87 1019.2
20260507145704 11 94 0.0 0.0 0.00 0.00 0.00 88 1019.1
20260507145203 11 94 0.0 0.0 0.00 0.00 0.00 88 1019.2
20260507144204 11 94 0.0 3.2 0.00 0.00 0.00 88 1019.1
20260507143704 11 94 0.0 3.2 0.00 0.00 0.00 88 1019.1
20260507142204 11 94 0.0 0.0 0.00 0.00 0.00 89 1019.0
20260507135703 11 94 0.0 0.0 0.00 0.00 0.00 89 1019.0
20260507132204 11 94 0.0 0.0 0.00 0.00 0.00 90 1019.0
20260507131704 11 94 0.0 0.0 0.00 0.00 0.00 90 1019.0
20260507130704 11 94 0.0 0.0 0.00 0.00 0.00 90 1019.0
20260507130204 11 94 0.0 0.0 0.00 0.00 0.00 90 1019.0
20260507124704 11 94 0.0 0.0 0.00 0.00 0.00 89 1019.1
20260507124204 11 94 0.0 0.0 0.00 0.00 0.00 89 1019.1
20260507123704 11 94 0.0 0.0 0.00 0.00 0.00 89 1019.0
20260507123203 11 94 0.0 0.0 0.00 0.00 0.00 89 1019.0
20260507115704 11 94 0.0 0.0 0.00 0.00 0.00 89 1019.2
20260507115204 11 94 0.0 0.0 0.00 0.00 0.00 89 1019.2
20260507114704 11 94 0.0 0.0 0.00 0.00 0.00 89 1019.2
20260507114204 11 94 0.0 0.0 0.00 0.00 0.00 89 1019.3
20260507113704 11 94 0.0 0.0 0.00 0.00 0.00 89 1019.2
20260507113204 11 94 0.0 0.0 0.00 0.00 0.00 89 1019.3
20260507111204 11 94 0.0 3.2 0.00 0.00 0.00 89 1019.4
20260507105704 11 94 0.0 3.2 0.00 0.00 0.00 89 1019.4
20260507105204 11 94 0.0 0.0 0.00 0.00 0.00 90 1019.4
20260507104704 11 94 0.0 3.2 0.00 0.00 0.00 90 1019.3
20260507103204 11 93 0.0 3.2 0.00 0.00 0.00 90 1019.3
20260507101704 11 93 0.0 3.2 0.00 0.00 0.00 91 1019.4
20260507101204 11 93 0.0 3.2 0.00 0.00 0.00 91 1019.5
20260507100703 11 93 0.0 1.6 0.00 0.00 0.00 91 1019.5
20260507095204 11 93 0.0 3.2 0.00 0.00 0.00 91 1019.3
20260507093704 11 93 0.0 3.2 0.00 0.00 0.00 91 1019.5
20260507092704 11 93 0.0 1.6 0.00 0.00 0.00 91 1019.5
20260507092204 11 93 0.0 3.2 0.00 0.00 0.00 91 1019.5
20260507090704 11 93 0.0 0.0 0.00 0.00 0.00 91 1019.4
20260507090204 11 93 0.0 0.0 0.00 0.00 0.00 91 1019.5
20260507085204 11 93 0.0 0.0 0.00 0.00 0.00 91 1019.6
20260507082704 11 93 0.0 0.0 0.00 0.00 0.00 91 1019.5
20260507081704 11 93 0.0 0.0 0.00 0.00 0.00 91 1019.4
20260507080704 11 93 0.0 1.6 0.00 0.00 0.00 91 1019.3
20260507075704 11 94 0.0 3.2 0.00 0.00 0.00 91 1019.3
20260507074704 11 94 0.0 1.6 0.00 0.00 0.00 91 1019.3
20260507073204 11 134 0.0 3.2 0.00 0.00 0.00 91 1019.3
20260507072704 11 134 0.0 3.2 0.00 0.00 0.00 91 1019.1
20260507072204 11 134 0.0 3.2 0.00 0.00 0.00 91 1019.2
20260507071703 11 134 0.0 3.2 0.00 0.00 0.00 90 1019.2
20260507071204 11 134 0.0 3.2 0.00 0.00 0.00 90 1019.2
20260507070204 11 134 0.0 0.0 0.00 0.00 0.00 90 1019.2
20260507065704 11 134 0.0 3.2 0.00 0.00 0.00 90 1019.2
20260507065204 11 134 0.0 1.6 0.00 0.00 0.00 90 1019.2
20260507064704 11 134 0.0 3.2 0.00 0.00 0.00 90 1019.1
20260507064204 11 134 0.0 1.6 0.00 0.00 0.00 90 1019.2
20260507063204 12 134 0.0 3.2 0.00 0.00 0.00 89 1019.1
20260507062203 12 134 0.0 3.2 0.00 0.00 0.00 89 1019.1
20260507054703 12 134 0.0 0.0 0.00 0.00 0.00 89 1019.2
20260507054204 12 134 0.0 0.0 0.00 0.00 0.00 88 1019.2
20260507053704 12 134 0.0 0.0 0.00 0.00 0.00 88 1019.2
20260507053204 12 134 0.0 0.0 0.00 0.00 0.00 88 1019.2
20260507052204 12 134 0.0 0.0 0.00 0.00 0.00 88 1019.3
20260507045704 12 134 0.0 3.2 0.00 0.00 0.00 88 1019.3
20260507045204 12 134 0.0 1.6 0.00 0.00 0.00 88 1019.2
20260507044204 12 134 0.0 0.0 0.00 0.00 0.00 87 1019.2
20260507043704 12 134 0.0 3.2 0.00 0.00 0.00 87 1019.2
20260507043204 12 134 0.0 0.0 0.00 0.00 0.00 87 1019.2
20260507042704 12 134 0.0 1.6 0.00 0.00 0.00 87 1019.2
20260507042204 12 134 0.0 3.2 0.00 0.00 0.00 87 1019.2
20260507040204 12 134 0.0 3.2 0.00 0.00 0.00 87 1019.1
20260507035204 12 134 0.0 3.2 0.00 0.00 0.00 86 1019.1
20260507034703 12 134 0.0 3.2 0.00 0.00 0.00 86 1019.1
20260507033704 12 134 0.0 3.2 0.00 0.00 0.00 86 1019.0
20260507031204 12 85 0.0 1.6 0.00 0.00 0.00 86 1018.9
20260507030204 12 85 0.0 0.0 0.00 0.00 0.00 86 1018.9
20260507025704 13 85 0.0 0.0 0.00 0.00 0.00 85 1018.8
20260507025204 13 85 0.0 0.0 0.00 0.00 0.00 85 1018.8
20260507023704 13 85 0.0 1.6 0.00 0.00 0.00 85 1018.8
20260507023204 13 85 0.0 0.0 0.00 0.00 0.00 85 1018.7
20260507021203 13 85 0.0 3.2 0.00 0.00 0.00 85 1018.7
20260507020204 13 85 0.0 0.0 0.00 0.00 0.00 85 1018.7
20260507015704 13 85 0.0 0.0 0.00 0.00 0.00 84 1018.6
20260507015204 13 85 0.0 0.0 0.00 0.00 0.00 84 1018.6
20260507012703 13 85 0.0 3.2 0.00 0.00 0.00 83 1018.7
20260507012204 13 85 0.0 3.2 0.00 0.00 0.00 83 1018.7
20260507011203 13 85 0.0 3.2 0.00 0.00 0.00 83 1018.8
20260507010703 13 85 0.0 1.6 0.00 0.00 0.00 82 1018.7
20260507010204 13 85 0.0 3.2 0.00 0.00 0.00 82 1018.7
20260507005204 13 85 0.0 3.2 0.00 0.00 0.00 81 1018.7
20260507003704 13 85 0.0 3.2 0.00 0.00 0.00 81 1018.8
20260507002703 13 138 0.0 3.2 0.00 0.00 0.00 82 1018.7
20260507002203 13 150 0.0 3.2 0.00 0.00 0.00 82 1018.7
20260507001204 13 150 0.0 3.2 0.00 0.00 0.00 81 1018.7
20260506234204 13 163 0.0 1.6 0.00 0.00 0.00 80 1018.7
20260506233705 13 163 0.0 3.2 0.00 0.00 0.00 80 1018.7
20260506233205 13 163 0.0 3.2 0.00 0.00 0.00 81 1018.8
20260506232705 13 163 0.0 3.2 0.00 0.00 0.00 80 1018.8
20260506230705 14 163 0.0 3.2 0.00 0.00 0.00 78 1018.8
20260506225705 14 163 0.0 3.2 0.00 0.00 0.00 79 1018.8
20260506224704 14 163 0.0 3.2 0.00 0.00 0.00 78 1018.9